TimeEST,TemperatureF,Dew PointF,Humidity,Sea Level PressureIn,VisibilityMPH,Wind Direction,Wind SpeedMPH,Gust SpeedMPH,PrecipitationIn,Events,Conditions,WindDirDegrees,DateUTC
12:15 AM,28.0,25.2,89,30.27,10.0,Calm,Calm,-,N/A,,Clear,0,2012-11-22 05:15:00
12:35 AM,28.6,25.9,90,30.27,7.0,Calm,Calm,-,N/A,,Clear,0,2012-11-22 05:35:00
12:55 AM,27.0,24.3,90,30.26,7.0,Calm,Calm,-,N/A,,Clear,0,2012-11-22 05:55:00
1:15 AM,27.0,24.3,90,30.27,7.0,Calm,Calm,-,N/A,,Clear,0,2012-11-22 06:15:00
1:35 AM,28.0,25.7,91,30.27,7.0,Calm,Calm,-,N/A,,Clear,0,2012-11-22 06:35:00
1:55 AM,28.4,25.9,90,30.27,7.0,Calm,Calm,-,N/A,,Clear,0,2012-11-22 06:55:00
2:15 AM,28.0,25.5,90,30.27,7.0,Calm,Calm,-,N/A,,Clear,0,2012-11-22 07:15:00
2:35 AM,27.3,24.8,90,30.27,7.0,Calm,Calm,-,N/A,,Clear,0,2012-11-22 07:35:00
2:55 AM,27.5,25.3,92,30.27,7.0,Calm,Calm,-,N/A,,Clear,0,2012-11-22 07:55:00
3:15 AM,27.1,24.8,91,30.27,7.0,Calm,Calm,-,N/A,,Clear,0,2012-11-22 08:15:00
3:35 AM,26.8,24.4,91,30.27,7.0,Calm,Calm,-,N/A,,Clear,0,2012-11-22 08:35:00
3:55 AM,27.3,25.2,92,30.27,5.0,Calm,Calm,-,N/A,,Clear,0,2012-11-22 08:55:00
4:15 AM,26.2,24.1,92,30.26,7.0,Calm,Calm,-,N/A,,Clear,0,2012-11-22 09:15:00
4:35 AM,25.5,23.4,92,30.27,7.0,Calm,Calm,-,N/A,,Clear,0,2012-11-22 09:35:00
4:55 AM,25.3,23.2,91,30.27,7.0,Calm,Calm,-,N/A,,Clear,0,2012-11-22 09:55:00
5:15 AM,24.3,22.3,92,30.28,7.0,Calm,Calm,-,N/A,,Clear,0,2012-11-22 10:15:00
5:35 AM,24.4,22.1,91,30.28,7.0,Calm,Calm,-,N/A,,Clear,0,2012-11-22 10:35:00
5:55 AM,24.3,21.9,91,30.29,7.0,Calm,Calm,-,N/A,,Clear,0,2012-11-22 10:55:00
6:15 AM,24.3,22.1,91,30.29,7.0,Calm,Calm,-,N/A,,Clear,0,2012-11-22 11:15:00
6:35 AM,23.5,21.4,91,30.29,7.0,Calm,Calm,-,N/A,,Clear,0,2012-11-22 11:35:00
6:55 AM,23.4,21.2,91,30.29,7.0,Calm,Calm,-,N/A,,Clear,0,2012-11-22 11:55:00
7:15 AM,24.3,21.9,91,30.29,7.0,Calm,Calm,-,N/A,,Clear,0,2012-11-22 12:15:00
7:35 AM,25.0,22.5,90,30.30,7.0,Calm,Calm,-,N/A,,Clear,0,2012-11-22 12:35:00
7:55 AM,26.1,23.7,91,30.30,5.0,Calm,Calm,-,N/A,,Clear,0,2012-11-22 12:55:00
8:15 AM,28.6,26.1,90,30.30,7.0,Calm,Calm,-,N/A,,Clear,0,2012-11-22 13:15:00
8:35 AM,30.2,27.3,89,30.30,7.0,Calm,Calm,-,N/A,,Clear,0,2012-11-22 13:35:00
8:55 AM,32.0,28.8,88,30.30,7.0,Calm,Calm,-,N/A,,Clear,0,2012-11-22 13:55:00
9:15 AM,34.5,30.6,85,30.30,10.0,Calm,Calm,-,N/A,,Clear,0,2012-11-22 14:15:00
9:35 AM,36.7,31.5,81,30.29,10.0,Calm,Calm,-,N/A,,Clear,0,2012-11-22 14:35:00
9:55 AM,39.4,32.4,76,30.29,10.0,Calm,Calm,-,N/A,,Clear,0,2012-11-22 14:55:00
10:15 AM,42.3,33.4,71,30.29,10.0,Calm,Calm,-,N/A,,Clear,0,2012-11-22 15:15:00
10:35 AM,44.6,32.5,63,30.29,10.0,Calm,Calm,-,N/A,,Clear,0,2012-11-22 15:35:00
10:55 AM,46.6,32.4,58,30.28,10.0,Calm,Calm,-,N/A,,Clear,0,2012-11-22 15:55:00
11:15 AM,48.2,31.8,53,30.27,10.0,Calm,Calm,-,N/A,,Clear,0,2012-11-22 16:15:00
11:35 AM,50.5,30.4,46,30.25,10.0,Calm,Calm,-,N/A,,Clear,0,2012-11-22 16:35:00
11:55 AM,52.3,30.2,43,30.24,10.0,Calm,Calm,-,N/A,,Clear,0,2012-11-22 16:55:00
12:15 PM,55.4,30.7,39,30.23,10.0,Calm,Calm,-,N/A,,Clear,0,2012-11-22 17:15:00
12:35 PM,55.9,30.6,38,30.22,10.0,Calm,Calm,-,N/A,,Clear,0,2012-11-22 17:35:00
12:55 PM,59.0,29.8,33,30.21,10.0,Calm,Calm,-,N/A,,Clear,0,2012-11-22 17:55:00
1:15 PM,59.9,28.0,30,30.21,10.0,Calm,Calm,-,N/A,,Clear,0,2012-11-22 18:15:00
1:35 PM,61.9,26.2,26,30.20,10.0,Calm,Calm,-,N/A,,Clear,0,2012-11-22 18:35:00
1:55 PM,62.4,27.5,27,30.19,10.0,Calm,Calm,-,N/A,,Clear,0,2012-11-22 18:55:00
2:15 PM,63.9,26.2,24,30.18,10.0,Calm,Calm,-,N/A,,Clear,0,2012-11-22 19:15:00
2:35 PM,63.5,25.3,23,30.18,10.0,Calm,Calm,-,N/A,,Clear,0,2012-11-22 19:35:00
2:55 PM,64.0,26.1,24,30.17,10.0,Calm,Calm,-,N/A,,Clear,0,2012-11-22 19:55:00
3:15 PM,63.5,26.8,25,30.17,10.0,Calm,Calm,-,N/A,,Clear,0,2012-11-22 20:15:00
3:35 PM,64.4,27.7,25,30.17,10.0,Calm,Calm,-,N/A,,Clear,0,2012-11-22 20:35:00
3:55 PM,62.8,30.4,30,30.17,10.0,Calm,Calm,-,N/A,,Clear,0,2012-11-22 20:55:00
4:15 PM,61.0,29.5,30,30.17,10.0,Calm,Calm,-,N/A,,Clear,0,2012-11-22 21:15:00
4:35 PM,58.6,31.5,36,30.17,10.0,Calm,Calm,-,N/A,,Clear,0,2012-11-22 21:35:00
4:55 PM,48.7,32.0,52,30.17,10.0,Calm,Calm,-,N/A,,Clear,0,2012-11-22 21:55:00
5:15 PM,46.6,31.8,56,30.17,10.0,Calm,Calm,-,N/A,,Clear,0,2012-11-22 22:15:00
5:35 PM,45.0,32.0,60,30.17,10.0,Calm,Calm,-,N/A,,Clear,0,2012-11-22 22:35:00
5:55 PM,42.1,31.6,67,30.17,10.0,Calm,Calm,-,N/A,,Clear,0,2012-11-22 22:55:00
6:15 PM,42.6,31.6,65,30.17,10.0,Calm,Calm,-,N/A,,Clear,0,2012-11-22 23:15:00
6:35 PM,40.6,31.3,69,30.17,10.0,Calm,Calm,-,N/A,,Clear,0,2012-11-22 23:35:00
6:55 PM,39.4,32.0,75,30.17,10.0,Calm,Calm,-,N/A,,Clear,0,2012-11-22 23:55:00
7:15 PM,39.6,31.8,74,30.18,10.0,Calm,Calm,-,N/A,,Clear,0,2012-11-23 00:15:00
7:35 PM,36.9,30.2,77,30.18,10.0,Calm,Calm,-,N/A,,Clear,0,2012-11-23 00:35:00
7:55 PM,37.0,31.1,79,30.17,10.0,Calm,Calm,-,N/A,,Clear,0,2012-11-23 00:55:00
8:15 PM,34.7,28.9,79,30.18,10.0,Calm,Calm,-,N/A,,Clear,0,2012-11-23 01:15:00
8:35 PM,35.1,30.0,82,30.17,10.0,Calm,Calm,-,N/A,,Clear,0,2012-11-23 01:35:00
8:55 PM,34.7,29.8,82,30.17,10.0,Calm,Calm,-,N/A,,Clear,0,2012-11-23 01:55:00
9:15 PM,34.3,29.3,82,30.17,10.0,Calm,Calm,-,N/A,,Clear,0,2012-11-23 02:15:00
9:35 PM,33.4,28.9,84,30.17,10.0,Calm,Calm,-,N/A,,Clear,0,2012-11-23 02:35:00
9:55 PM,33.3,29.5,86,30.16,10.0,Calm,Calm,-,N/A,,Clear,0,2012-11-23 02:55:00
10:15 PM,31.6,27.9,86,30.16,10.0,Calm,Calm,-,N/A,,Clear,0,2012-11-23 03:15:00
10:35 PM,31.8,28.2,87,30.16,10.0,Calm,Calm,-,N/A,,Clear,0,2012-11-23 03:35:00
10:55 PM,31.8,28.6,88,30.15,10.0,Calm,Calm,-,N/A,,Clear,0,2012-11-23 03:55:00
11:15 PM,30.9,27.5,87,30.14,10.0,Calm,Calm,-,N/A,,Clear,0,2012-11-23 04:15:00
11:35 PM,31.3,27.9,87,30.13,10.0,Calm,Calm,-,N/A,,Clear,0,2012-11-23 04:35:00
11:55 PM,30.2,26.6,86,30.13,10.0,Calm,Calm,-,N/A,,Clear,0,2012-11-23 04:55:00